User: anonymous   Login
Location: ?
(35.4064°N, 139.3593°E)
Time: 17:55:09
(UTC+00:00)
Language:

Cosmos 1626 - Orbit

View from above orbital plane
View from above orbital plane
View from above satellite
View from above satellite

Ground track
Ground track

The orbit data is extracted from the following two-line orbital elements,

1 15494U 85009A   24170.84945367  .00036216  00000-0  55627-3 0  9991
2 15494  82.4646 188.6650 0003762 110.6790 249.4867 15.54090872159085
Epoch (UTC): 18 June 2024 20:23:12
Eccentricity: 0.0003762
inclination: 82.4646°
perigee height: 402 km
apogee height: 407 km
right ascension of ascending node: 188.6650°
argument of perigee: 110.6790°
revolutions per day: 15.54090872
mean anomaly at epoch: 249.4867°
orbit number at epoch: 15908

The dashed part of the orbit path shows where the satellite is in the earth's shadow,  

DLR